This is the latest recevied weather packets stored in our database for station/object KQ4KX. If no packets are shown the sender has not sent any weather packets the latest 10 day(s).
| Time | Temp. | Humidity | Pressure | Rain* | Wind** | Luminosity | Snow |
|---|---|---|---|---|---|---|---|
| 1777753318 | 21.67° C | 89% | 1011.5 hPa | 0.25 mm | - | - | - |
| 1777752388 | 23.33° C | 84% | 1011.9 hPa | 0.25 mm | - | - | - |
| 1777752058 | 25.56° C | 75% | 1011.7 hPa | 0 mm | - | - | - |
| 1777751728 | 27.78° C | 79% | 1011.8 hPa | 0 mm | - | - | - |
| 1777751398 | 27.78° C | 78% | 1011.3 hPa | 0 mm | - | - | - |
| 1777751098 | 27.78° C | 78% | 1011.2 hPa | 0 mm | - | - | - |
| 1777750798 | 28.33° C | 78% | 1011.2 hPa | 0 mm | - | - | - |
| 1777750498 | 28.33° C | 78% | 1011.2 hPa | 0 mm | - | - | - |
| 1777750198 | 28.33° C | 77% | 1011.1 hPa | 0 mm | - | - | - |
| 1777749898 | 28.33° C | 78% | 1011 hPa | 0 mm | - | - | - |
| 1777749568 | 28.33° C | 78% | 1010.9 hPa | 0 mm | - | - | - |
| 1777749238 | 28.33° C | 78% | 1011.1 hPa | 0 mm | - | - | - |
| 1777748908 | 28.33° C | 77% | 1011.1 hPa | 0 mm | - | - | - |
| 1777748610 | 28.33° C | 77% | 1011.3 hPa | 0 mm | - | - | - |
| 1777748278 | 28.89° C | 76% | 1011.2 hPa | 0 mm | - | - | - |
| 1777747678 | 28.89° C | 74% | 1011 hPa | 0 mm | - | - | - |
| 1777747348 | 28.89° C | 72% | 1011.1 hPa | 0 mm | - | - | - |
| 1777747048 | 28.89° C | 72% | 1011 hPa | 0 mm | - | - | - |
| 1777746718 | 28.89° C | 71% | 1011.2 hPa | 0 mm | - | - | - |
| 1777746388 | 29.44° C | 71% | 1011.3 hPa | 0 mm | - | - | - |
| 1777746087 | 29.44° C | 71% | 1011.3 hPa | 0 mm | - | - | - |
| 1777745788 | 29.44° C | 71% | 1011.2 hPa | 0 mm | - | - | - |
| 1777745488 | 29.44° C | 71% | 1011.1 hPa | 0 mm | - | - | - |
| 1777745188 | 29.44° C | 71% | 1011.1 hPa | 0 mm | - | - | - |
| 1777744858 | 29.44° C | 70% | 1011.1 hPa | 0 mm | - | - | - |
* Rain latest hour (hover to see other rain measurements)
** Current wind speed in m/s (hover to see current wind gust speed)